EW4877 Weather Reports


time (UTC)temp
C
wind
direction
speed
KPH
gust
KPH
rain 1hr
cm
rain 24hr
cm
rain mn
cm
humidity
%
barometer
mb
20260506114002 14 213 0.0 3.2 0.00 0.00 0.00 80 1018.3
20260506113502 14 142 0.0 1.6 0.00 0.00 0.00 80 1018.3
20260506112002 14 159 0.0 4.8 0.00 0.00 0.00 80 1018.2
20260506111503 14 159 0.0 3.2 0.00 0.00 0.00 80 1018.2
20260506111002 14 189 0.0 6.4 0.00 0.00 0.00 80 1018.2
20260506110502 14 182 0.0 6.4 0.00 0.00 0.00 81 1018.0
20260506110004 14 114 0.0 0.0 0.00 0.00 0.00 80 1018.1
20260506105001 14 114 0.0 0.0 0.00 0.00 0.00 80 1018.0
20260506104502 14 114 0.0 3.2 0.00 0.00 0.00 80 1017.9
20260506104001 14 111 0.0 3.2 0.00 0.00 0.00 80 1018.0
20260506103501 14 121 0.0 0.0 0.00 0.00 0.00 80 1018.0
20260506102501 14 111 0.0 0.0 0.00 0.00 0.00 80 1017.9
20260506101502 14 126 0.0 0.0 0.00 0.00 0.00 79 1017.7
20260506101001 14 131 0.0 0.0 0.00 0.00 0.00 80 1017.7
20260506100458 14 131 0.0 0.0 0.00 0.00 0.00 79 1017.7
20260506100005 14 131 0.0 0.0 0.00 0.00 0.00 79 1017.7
20260506095502 14 131 0.0 3.2 0.00 0.00 0.00 79 1017.7
20260506094502 15 107 0.0 3.2 0.00 0.00 0.00 78 1017.7
20260506093501 15 94 0.0 1.6 0.00 0.00 0.00 78 1017.6
20260506093001 15 172 0.0 3.2 0.00 0.00 0.00 79 1017.6
20260506092501 15 172 0.0 3.2 0.00 0.00 0.00 78 1017.6
20260506092001 15 80 0.0 3.2 0.00 0.00 0.00 79 1017.5
20260506091503 15 55 0.0 3.2 0.00 0.00 0.00 79 1017.5
20260506091001 15 88 0.0 3.2 0.00 0.00 0.00 79 1017.6
20260506090502 15 116 0.0 3.2 0.00 0.00 0.00 79 1017.6
20260506090004 15 145 0.0 3.2 0.00 0.00 0.00 79 1017.6
20260506085501 15 95 0.0 0.0 0.00 0.00 0.00 79 1017.7
20260506085004 15 123 0.0 0.0 0.00 0.00 0.00 80 1017.7
20260506084502 15 76 0.0 0.0 0.00 0.00 0.00 80 1017.7
20260506084003 15 96 0.0 0.0 0.00 0.00 0.00 80 1017.7
20260506083502 15 94 0.0 0.0 0.00 0.00 0.00 79 1017.6
20260506083002 15 94 0.0 0.0 0.00 0.00 0.00 79 1017.7
20260506082501 15 106 0.0 0.0 0.00 0.00 0.00 79 1017.6
20260506082002 15 106 0.0 0.0 0.00 0.00 0.00 79 1017.6
20260506081504 15 103 0.0 0.0 0.00 0.00 0.00 79 1017.6
20260506081001 15 95 0.0 0.0 0.00 0.00 0.00 78 1017.6
20260506080501 15 94 0.0 3.2 0.00 0.00 0.00 78 1017.6
20260506073503 15 209 0.0 0.0 0.00 0.05 0.00 77 1017.4
20260506073004 15 209 0.0 1.6 0.00 0.05 0.00 76 1017.4
20260506072504 15 199 0.0 3.2 0.00 0.05 0.00 76 1017.3
20260506072004 15 182 0.0 3.2 0.00 0.05 0.00 76 1017.3
20260506071504 15 179 0.0 3.2 0.00 0.05 0.00 76 1017.3
20260506071004 15 180 0.0 3.2 0.00 0.05 0.00 76 1017.2
20260506062503 15 212 1.6 3.2 0.00 0.15 0.05 76 1016.9
20260506062004 15 236 1.6 4.8 0.00 0.15 0.05 75 1016.8
20260506061004 15 209 1.6 6.4 0.00 0.15 0.05 75 1016.8
20260506060504 15 246 1.6 4.8 0.00 0.15 0.05 75 1016.7
20260506051003 16 101 0.0 0.0 0.00 0.36 0.05 76 1016.1
20260506050504 16 101 0.0 0.0 0.00 0.36 0.05 75 1016.0
20260506045004 16 98 0.0 3.2 0.00 1.07 0.05 75 1015.9
20260506044504 16 88 0.0 3.2 0.00 1.07 0.05 75 1015.9
20260506044003 16 85 0.0 3.2 0.00 1.07 0.05 74 1015.9
20260506043503 16 94 0.0 3.2 0.00 1.07 0.05 74 1015.8
20260506042004 16 92 0.0 0.0 0.00 1.07 0.05 72 1015.6
20260506041003 16 159 0.0 4.8 0.00 1.07 0.05 71 1015.4
20260506040503 16 211 0.0 4.8 0.00 1.07 0.05 71 1015.4
20260506040007 16 216 0.0 4.8 0.00 1.07 0.05 71 1015.4
20260506034504 17 184 1.6 4.8 0.00 1.45 0.05 69 1015.1
20260506033505 17 177 0.0 3.2 0.00 1.45 0.05 70 1015.2
20260506032503 17 135 1.6 3.2 0.00 1.45 0.05 69 1015.0
20260506032004 17 140 1.6 6.4 0.00 1.45 0.05 68 1014.9
20260506030503 17 142 1.6 9.7 0.00 1.45 0.05 68 1014.7
20260506025503 17 198 1.6 4.8 0.00 1.78 0.05 68 1014.6
20260506025004 17 110 1.6 9.7 0.00 1.78 0.05 67 1014.5
20260506024003 17 169 1.6 6.4 0.00 1.78 0.05 66 1014.3
20260506023503 17 159 1.6 6.4 0.00 1.78 0.05 66 1014.3
20260506023004 18 233 1.6 6.4 0.00 1.78 0.05 66 1014.2
20260506022504 18 156 1.6 6.4 0.00 1.78 0.05 65 1014.2
20260506022004 18 155 0.0 4.8 0.00 1.78 0.05 65 1014.3
20260506020503 18 130 0.0 3.2 0.00 1.78 0.05 65 1014.0
20260506020006 18 189 0.0 3.2 0.00 1.78 0.05 64 1014.1
20260506014504 18 96 0.0 3.2 0.00 1.88 0.05 63 1013.9
20260506013504 18 346 1.6 6.4 0.00 1.88 0.05 63 1014.0
20260506013004 18 100 1.6 4.8 0.00 1.88 0.05 63 1013.9
20260506012504 18 174 1.6 6.4 0.00 1.88 0.05 63 1013.9
20260506012003 18 92 1.6 3.2 0.00 1.88 0.05 63 1013.8
20260506011503 18 307 0.0 4.8 0.00 1.88 0.05 63 1013.7
20260506011003 18 148 0.0 4.8 0.00 1.88 0.05 64 1013.7
20260506010504 18 70 0.0 4.8 0.00 1.88 0.05 64 1013.8
20260506010006 18 114 0.0 3.2 0.00 1.88 0.05 66 1013.8
20260506005504 18 111 1.6 8.0 0.00 2.13 0.05 66 1013.8
20260506005004 18 97 1.6 8.0 0.00 2.13 0.05 67 1013.8
20260506004504 18 79 0.0 4.8 0.00 2.13 0.05 68 1013.8
20260506004002 18 80 1.6 4.8 0.00 2.13 0.05 67 1013.8
20260506003503 18 100 1.6 3.2 0.00 2.13 0.05 67 1013.8
20260506003004 18 69 1.6 4.8 0.00 2.13 0.05 67 1013.8
20260506002504 18 51 1.6 4.8 0.00 2.13 0.05 66 1013.8
20260506001505 18 100 1.6 3.2 0.00 2.13 0.05 67 1013.6
20260506001003 18 97 1.6 6.4 0.00 2.13 0.05 67 1013.6
20260506000503 18 87 1.6 6.4 0.00 2.13 0.05 68 1013.7
20260506000006 18 92 0.0 4.8 0.00 2.13 0.05 67 1013.7
20260505235002 18 88 1.6 4.8 0.00 2.34 0.05 68 1013.7
20260505234504 18 93 1.6 6.4 0.00 2.34 0.05 67 1013.7
20260505234003 18 96 1.6 4.8 0.00 2.34 0.05 67 1013.8
20260505232503 18 97 1.6 6.4 0.00 2.34 0.05 68 1013.8
20260505232003 17 79 3.2 6.4 0.00 2.34 0.05 69 1013.9
20260505231503 17 51 3.2 6.4 0.00 2.34 0.05 70 1013.9
20260505231003 17 73 1.6 6.4 0.00 2.34 0.05 69 1013.8
20260505230502 17 66 1.6 4.8 0.00 2.34 0.05 70 1013.9
20260505230004 17 49 1.6 4.8 0.00 2.34 0.05 69 1013.9
20260505225504 17 33 1.6 4.8 0.00 2.57 0.05 70 1013.9
20260505225001 17 40 1.6 4.8 0.00 2.57 0.05 69 1014.0
20260505224504 17 347 0.0 3.2 0.00 2.57 0.05 70 1014.0
20260505224002 17 5 0.0 3.2 0.00 2.57 0.05 70 1014.0
20260505223502 17 329 0.0 0.0 0.00 2.57 0.05 70 1014.0
20260505223003 17 344 1.6 4.8 0.00 2.57 0.05 69 1014.0
20260505222502 17 23 1.6 4.8 0.00 2.57 0.05 68 1014.1
20260505222002 17 42 0.0 1.6 0.00 2.57 0.05 69 1014.1
20260505221503 17 26 0.0 3.2 0.00 2.57 0.05 68 1014.2
20260505220007 17 12 1.6 4.8 0.00 2.57 0.05 67 1014.2
20260505215505 17 20 1.6 4.8 0.00 2.77 0.05 66 1014.3
20260505215003 18 39 0.0 4.8 0.00 2.77 0.05 66 1014.3
20260505214504 18 335 0.0 3.2 0.00 2.77 0.05 66 1014.4
20260505214003 18 13 0.0 3.2 0.00 2.77 0.05 64 1014.4
20260505213505 18 360 0.0 3.2 0.00 2.77 0.05 65 1014.4
20260505213003 18 22 0.0 3.2 0.00 2.77 0.05 64 1014.3
20260505212503 18 227 0.0 3.2 0.00 2.77 0.05 64 1014.4
20260505212003 18 269 0.0 3.2 0.00 2.77 0.05 64 1014.4
20260505211503 18 267 0.0 3.2 0.00 2.77 0.05 63 1014.3
20260505211004 19 203 1.6 4.8 0.00 2.77 0.05 63 1014.3
20260505210503 19 221 3.2 9.7 0.00 2.77 0.05 62 1014.3
20260505210006 19 265 3.2 9.7 0.00 2.77 0.05 59 1014.3
20260505205503 20 223 3.2 8.0 0.00 2.87 0.05 60 1014.3
20260505205002 20 313 3.2 8.0 0.00 2.87 0.05 60 1014.3
20260505204504 20 242 3.2 8.0 0.00 2.87 0.05 61 1014.3
20260505204002 20 292 4.8 12.9 0.00 2.87 0.05 60 1014.3
20260505202502 20 225 4.8 12.9 0.00 2.87 0.05 63 1014.4
20260505202003 19 202 4.8 14.5 0.00 2.87 0.05 62 1014.4
20260505201504 19 208 4.8 12.9 0.00 2.87 0.05 67 1014.4
20260505201003 18 267 4.8 12.9 0.00 2.87 0.05 65 1014.5
20260505200503 18 256 6.4 12.9 0.00 2.87 0.05 64 1014.5
20260505200007 18 273 6.4 12.9 0.00 2.87 0.05 68 1014.5
20260505195504 18 232 4.8 12.9 0.00 2.87 0.05 66 1014.6
20260505195003 18 271 4.8 11.3 0.00 2.87 0.05 65 1014.6
20260505194505 18 287 4.8 11.3 0.00 2.87 0.05 65 1014.6
20260505194002 18 222 3.2 8.0 0.00 2.87 0.05 66 1014.7
20260505193502 19 250 3.2 9.7 0.00 2.87 0.05 64 1014.7
20260505193003 19 248 3.2 9.7 0.00 2.87 0.05 62 1014.8
20260505192503 19 243 4.8 12.9 0.00 2.87 0.05 66 1014.8
20260505192004 19 187 4.8 12.9 0.00 2.87 0.05 63 1014.7
20260505191002 18 217 3.2 11.3 0.00 2.87 0.05 68 1014.7
20260505190503 18 225 1.6 11.3 0.00 2.87 0.05 70 1014.7
20260505190006 17 27 3.2 8.0 0.00 2.87 0.05 73 1014.7
20260505185503 17 113 3.2 11.3 0.00 2.87 0.05 73 1014.7
20260505185003 16 240 1.6 11.3 0.00 2.87 0.05 72 1014.7
20260505184503 16 92 1.6 4.8 0.00 2.87 0.05 75 1014.8
20260505184003 16 80 3.2 4.8 0.00 2.87 0.05 73 1014.7
20260505183003 16 234 3.2 8.0 0.00 2.87 0.05 73 1014.7
20260505182502 16 223 1.6 8.0 0.00 2.87 0.05 75 1014.7
20260505181504 16 268 3.2 8.0 0.00 2.87 0.05 76 1014.6
20260505181003 16 211 3.2 9.7 0.00 2.87 0.05 76 1014.6
20260505180503 16 252 1.6 9.7 0.00 2.87 0.05 77 1014.6
20260505180005 15 259 1.6 8.0 0.00 2.87 0.05 78 1014.6
20260505175501 15 227 3.2 6.4 0.00 2.87 0.05 81 1014.6
20260505175002 15 202 3.2 8.0 0.00 2.87 0.05 82 1014.6
20260505174502 15 267 3.2 8.0 0.00 2.87 0.05 80 1014.6
20260505173502 15 232 3.2 6.4 0.00 2.87 0.05 83 1014.6
20260505173003 15 244 3.2 6.4 0.00 2.87 0.05 82 1014.6
20260505172501 14 179 1.6 6.4 0.00 2.87 0.05 85 1014.6
20260505171503 14 90 1.6 4.8 0.00 2.87 0.05 85 1014.6
20260505170502 13 182 3.2 9.7 0.00 2.87 0.05 85 1014.6
20260505170006 13 154 1.6 8.0 0.00 2.87 0.05 87 1014.6
20260505165502 13 198 0.0 9.7 0.00 2.87 0.05 89 1014.6
20260505165001 13 151 1.6 4.8 0.00 2.87 0.05 89 1014.5
20260505164503 13 171 1.6 4.8 0.00 2.87 0.05 90 1014.5
20260505164002 12 173 1.6 8.0 0.00 2.87 0.05 90 1014.5
20260505162502 12 150 1.6 11.3 0.00 2.87 0.05 91 1014.4
20260505162002 12 148 1.6 8.0 0.00 2.87 0.05 92 1014.4
20260505161003 12 182 0.0 8.0 0.00 2.87 0.05 93 1014.4
20260505160501 12 88 0.0 6.4 0.00 2.87 0.05 93 1014.4
20260505153002 11 140 1.6 4.8 0.00 2.87 0.05 93 1014.4
20260505152002 11 212 1.6 4.8 0.00 2.87 0.05 94 1014.4
20260505151502 11 197 1.6 4.8 0.00 2.87 0.05 94 1014.3
20260505151002 11 173 1.6 8.0 0.00 2.87 0.05 94 1014.2
20260505150503 11 187 0.0 4.8 0.00 2.87 0.05 94 1014.2
20260505140502 10 93 0.0 0.0 0.00 2.87 0.05 93 1013.6
20260505124503 10 171 0.0 6.4 0.00 2.87 0.05 93 1013.3
20260505124002 10 126 0.0 8.0 0.00 2.87 0.05 93 1013.3
20260505123502 10 122 1.6 4.8 0.00 2.87 0.05 93 1013.3
20260505123002 10 186 1.6 6.4 0.00 2.87 0.05 93 1013.2
20260505122503 10 218 3.2 6.4 0.00 2.87 0.05 93 1013.2
20260505122001 11 213 3.2 8.0 0.00 2.87 0.05 93 1013.2
20260505121502 11 236 3.2 8.0 0.00 2.87 0.05 93 1013.2
20260505121002 11 199 3.2 11.3 0.00 2.87 0.05 93 1013.1
20260505120005 11 198 3.2 6.4 0.00 2.87 0.05 93 1013.1
20260505115501 11 190 1.6 6.4 0.00 2.87 0.05 94 1013.1
20260505115003 11 197 1.6 6.4 0.00 2.87 0.05 94 1013.1
20260505114504 11 209 1.6 9.7 0.00 2.87 0.05 94 1013.1